This demonstration page uses our WeatherBlox Daily Observations layout. Learn more.

39.12711, -84.51439

Hourly Observations for November 29, 2020

Temp ( °F °C ) Dew Point ( °F °C ) Humidity (%) Winds ( mph kmh ) Pressure ( in mb ) Visibility ( mi km ) Precip ( " mm )
12:01 am 00:01 Clear with Mist and Fog 30 -1.1 29 -1.7 96 96 Calm 30.22 1023 3 4.82802 0 0
12:53 am 00:53 Clear with Mist and Fog 30 -1.1 28 -2.2 92 92 Calm 30.19 1022 6 9.65604 0 0
1:53 am 01:53 Clear with Mist and Fog 29 -1.7 27 -2.8 92 92 Calm 30.17 1022 3 4.82802 0 0
1:55 am 01:55 Clear with Mist and Fog 29 -1.7 27 -2.8 92 92 Calm 30.19 1022 1.75 2.816345 0 0
2:05 am 02:05 Clear with Mist and Fog 28 -2.2 27 -2.8 96 96 ENE 3 6 30.19 1022 0.75 1.207005 0 0
2:12 am 02:12 Clear with Mist and Fog 28 -2.2 27 -2.8 96 96 ENE 3 6 30.19 1022 2 3.21868 0 0
2:24 am 02:24 Clear with Mist and Fog 29 -1.7 28 -2.2 96 96 Calm 30.19 1022 4 6.43736 0 0
2:43 am 02:43 Clear with Mist and Fog 30 -1.1 28 -2.2 92 92 Calm 30.19 1022 2 3.21868 0 0
2:53 am 02:53 Clear with Mist and Fog 29 -1.7 28 -2.2 96 96 Calm 30.17 1022 1 1.60934 0 0
3:01 am 03:01 Mostly Cloudy with Mist and Fog 29 -1.7 28 -2.2 96 96 Calm 30.19 1022 1 1.60934 0 0
3:07 am 03:07 Partly Cloudy with Mist and Fog 29 -1.7 28 -2.2 96 96 Calm 30.2 1023 2 3.21868 0 0
3:10 am 03:10 Mostly Cloudy with Mist and Fog 28 -2.2 27 -2.8 96 96 Calm 30.2 1023 3 4.82802 0 0
3:13 am 03:13 Mostly Cloudy with Mist and Fog 27 -2.8 26 -3.3 96 96 Calm 30.2 1023 1.5 2.41401 0 0
3:20 am 03:20 Mostly Cloudy with Freezing Fog 28 -2.2 26 -3.3 92 92 Calm 30.2 1023 0.25 0.402335 0 0
3:53 am 03:53 Mostly Cloudy with Freezing Fog 29 -1.7 28 -2.2 96 96 Calm 30.18 1022 0.25 0.402335 0 0
4:53 am 04:53 Mostly Cloudy with Freezing Fog 28 -2.2 27 -2.8 96 96 NNE 3 6 30.17 1022 0.25 0.402335 0 0
5:29 am 05:29 Mostly Cloudy with Freezing Fog 27 -2.8 26 -3.3 96 96 Calm 30.19 1022 0.5 0.80467 0 0
5:38 am 05:38 Mostly Cloudy with Freezing Fog 26 -3.3 24 -4.4 92 92 Calm 30.2 1023 0.25 0.402335 0 0
5:50 am 05:50 Mostly Cloudy with Freezing Fog 25 -4 23 -5 93 93 Calm 30.2 1023 0.5 0.80467 0 0
5:53 am 05:53 Mostly Cloudy with Freezing Fog 25 -3.9 23 -5 92 92 Calm 30.16 1022 0.5 0.80467 0 0
5:57 am 05:57 Clear with Mist and Fog 25 -3.9 24 -4.4 96 96 Calm 30.2 1023 1.5 2.41401 0 0
5:59 am 05:59 Clear with Mist and Fog 26 -3.3 24 -4.4 92 92 Calm 30.2 1023 3 4.82802 0 0
6:02 am 06:02 Clear with Mist and Fog 26 -3.3 25 -3.9 96 96 Calm 30.2 1023 1.5 2.41401 0 0
6:04 am 06:04 Mostly Cloudy with Mist and Fog 27 -2.8 25 -3.9 92 92 Calm 30.19 1022 0.75 1.207005 0 0
6:09 am 06:09 Mostly Cloudy with Freezing Fog 28 -2.2 27 -2.8 96 96 Calm 30.19 1022 0.25 0.402335 0 0
6:53 am 06:53 Mostly Cloudy with Freezing Fog 28 -2.2 27 -2.8 96 96 Calm 30.18 1022 N/A 0 0
7:53 am 07:53 Mostly Cloudy with Freezing Fog 28 -2.2 26 -3.3 92 92 Calm 30.17 1022 N/A 0 0
8:53 am 08:53 Mostly Cloudy with Freezing Fog 30 -1.1 29 -1.7 96 96 Calm 30.17 1022 0.25 0.402335 0 0
9:53 am 09:53 Cloudy with Fog 32 0 32 0 100 100 Calm 30.15 1021 0.5 0.80467 0 0
10:15 am 10:15 Partly Cloudy with Mist and Fog 34 1.1 34 1.1 100 100 Calm 30.16 1021 3 4.82802 0 0
10:53 am 10:53 Mostly Sunny 38 3.3 37 2.8 97 97 Calm 30.12 1020 10 16.0934 0 0
11:53 am 11:53 Sunny 48 8.9 36 2.2 63 63 VRB 7 11 30.08 1019 10 16.0934 0 0
12:53 pm 12:53 Sunny 53 11.7 35 1.7 51 51 VRB 3 6 30.02 1017 10 16.0934 0 0
1:53 pm 13:53 Sunny 54 12.2 33 0.6 45 45 WSW 5 7 30.01 1016 10 16.0934 0 0
2:53 pm 14:53 Mostly Sunny 55 12.8 32 0 42 42 Calm 29.97 1015 10 16.0934 0 0
3:53 pm 15:53 Sunny 54 12.2 34 1.1 47 47 Calm 29.95 1014 10 16.0934 0 0
4:53 pm 16:53 Sunny 53 11.7 34 1.1 48 48 Calm 29.93 1014 10 16.0934 0 0
5:53 pm 17:53 Clear 49 9.4 37 2.8 64 64 Calm 29.93 1014 10 16.0934 0 0
6:53 pm 18:53 Mostly Cloudy 46 7.8 39 3.9 77 77 Calm 29.92 1013 10 16.0934 0 0
7:53 pm 19:53 Mostly Cloudy 46 7.8 39 3.9 77 77 Calm 29.91 1013 10 16.0934 0 0
8:53 pm 20:53 Partly Cloudy 46 7.8 39 3.9 77 77 Calm 29.88 1012 10 16.0934 0 0
9:53 pm 21:53 Mostly Cloudy 44 6.7 39 3.9 83 83 Calm 29.86 1011 10 16.0934 0 0
10:53 pm 22:53 Cloudy 44 6.7 40 4.4 85 85 VRB 5 7 29.82 1010 10 16.0934 0 0
11:53 pm 23:53 Cloudy 50 10 38 3.3 63 63 VRB 5 7 29.8 1009 10 16.0934 0.001 0.001

Powered by AerisWeather